WetterOnline ( http://www.wetteronline.de )

Wetter aktuell Uckermark

Aktuelles Wetter: Angermünde (55m)

6-stündlich | Neueste Meldungen
Ortszeit Temperatur Wetter
So, 20.01. 1:00 -6.0° C Nebel
Sa, 19.01. 19:00 -0.4° C bedeckt
Sa, 19.01. 13:00 0.2° C bedeckt
Sa, 19.01. 7:00 -1.8° C bewölkt
Sa, 19.01. 1:00 -1.1° C bewölkt
Fr, 18.01. 19:00 -0.1° C fast wolkenlos
Fr, 18.01. 13:00 0.1° C wolkenlos
Fr, 18.01. 7:00 -2.0° C bedeckt
Ortszeit Temperatur Wetter
So, 20.01. 6:00 -7.5° C Nebel
So, 20.01. 5:50 -7.5° C Nebel
So, 20.01. 5:40 -7.4° C bewölkt
So, 20.01. 5:30 -7.5° C Nebel
So, 20.01. 5:20 -7.5° C Nebel
So, 20.01. 5:10 -7.5° C Nebel
So, 20.01. 5:00 -7.3° C Nebel
So, 20.01. 4:30 -7.1° C Nebel
So, 20.01. 4:00 -7.1° C Nebel
So, 20.01. 3:30 -7.1° C Nebel
So, 20.01. 3:00 -7.2° C Nebel
Ortszeit Relative Feuchte Sichtweite
So, 20.01. 1:00 99% 0.8 km
Sa, 19.01. 19:00 82% 18 km
Sa, 19.01. 13:00 84% 17 km
Sa, 19.01. 7:00 91% 20 km
Sa, 19.01. 1:00 89% 27 km
Fr, 18.01. 19:00 86% 55 km
Fr, 18.01. 13:00 79% 30 km
Fr, 18.01. 7:00 89% 70 km
Ortszeit Relative Feuchte Sichtweite
So, 20.01. 6:00 97% 0.2 km
So, 20.01. 5:50 97% -
So, 20.01. 5:40 96% -
So, 20.01. 5:30 96% 100 m
So, 20.01. 5:20 96% -
So, 20.01. 5:10 97% -
So, 20.01. 5:00 97% 0.8 km
So, 20.01. 4:30 97% 0.3 km
So, 20.01. 4:00 97% 0.2 km
So, 20.01. 3:30 98% 100 m
So, 20.01. 3:00 95% 100 m
Ortszeit Niederschlagsmenge Niederschlagsart
So, 20.01. 1:00 0.0 l/m2 in 6 Std. -
Sa, 19.01. 19:00 0.0 l/m2 in 12 Std. -
Sa, 19.01. 13:00 0.0 l/m2 in 6 Std. -
Sa, 19.01. 7:00 0.0 l/m2 in 12 Std. -
Sa, 19.01. 1:00 0.0 l/m2 in 6 Std. -
Fr, 18.01. 19:00 0.0 l/m2 in 12 Std. -
Fr, 18.01. 13:00 0.0 l/m2 in 6 Std. -
Fr, 18.01. 7:00 4 l/m2 in 12 Std. Schnee, Sprühregen
Ortszeit Niederschlagsmenge Niederschlagsart
So, 20.01. 6:00 0.0 l/m2 in 1 Std. -
So, 20.01. 5:50 keine Meldung -
So, 20.01. 5:40 keine Meldung -
So, 20.01. 5:30 0.0 l/m2 in 1 Std. -
So, 20.01. 5:20 keine Meldung -
So, 20.01. 5:10 keine Meldung -
So, 20.01. 5:00 0.0 l/m2 in 1 Std. -
So, 20.01. 4:30 0.0 l/m2 in 1 Std. -
So, 20.01. 4:00 0.0 l/m2 in 1 Std. -
So, 20.01. 3:30 0.0 l/m2 in 1 Std. -
So, 20.01. 3:00 0.0 l/m2 in 1 Std. -
Ortszeit Stärke Spitze Richtung
km/h Bft. km/h Grad Sektor
So, 20.01. 1:00 2 1 9 320° NW
Sa, 19.01. 19:00 4 1 11 170° S
Sa, 19.01. 13:00 7 2 18 280° W
Sa, 19.01. 7:00 13 3 24 250° W
Sa, 19.01. 1:00 6 1 28 270° W
Fr, 18.01. 19:00 18 3 32 250° W
Fr, 18.01. 13:00 13 3 26 260° W
Fr, 18.01. 7:00 15 3 39 290° W
Ortszeit Stärke Spitze Richtung
km/h Bft. km/h Grad Sektor
So, 20.01. 6:00 0 0 4 - -
So, 20.01. 5:50 2 1 - 320° NW
So, 20.01. 5:40 4 1 - 330° NW
So, 20.01. 5:30 2 1 4 300° NW
So, 20.01. 5:20 2 1 - 300° NW
So, 20.01. 5:10 2 1 - 290° W
So, 20.01. 5:00 4 1 4 340° N
So, 20.01. 4:30 4 1 4 290° W
So, 20.01. 4:00 4 1 7 310° NW
So, 20.01. 3:30 0 0 7 - -
So, 20.01. 3:00 4 1 7 320° NW
Ortszeit Untergrenze Bedeckung Gattung
total tief tief mittel hoch
So, 20.01. 1:00 <30 m 0/8 0/8 - - -
Sa, 19.01. 19:00 390 m 8/8 8/8 - - -
Sa, 19.01. 13:00 300 m 8/8 8/8 - - -
Sa, 19.01. 7:00 6600 m 8/8 6/8 - - -
Sa, 19.01. 1:00 420 m 8/8 6/8 - - -
Fr, 18.01. 19:00 1800 m 1/8 1/8 - - -
Fr, 18.01. 13:00 - 0/8 0/8 - - -
Fr, 18.01. 7:00 1500 m 8/8 8/8 - - -
Ortszeit Bedeckungsgrad in Achtel und Wolkenuntergrenze
So, 20.01. 6:00 7(<30m)
So, 20.01. 5:50 7(<30m)
So, 20.01. 5:40 7(<30m)
So, 20.01. 5:30 8(<30m)
So, 20.01. 5:20 8(<30m)
So, 20.01. 5:10 8(<30m) 8(8400m)
So, 20.01. 5:00 8(<30m) 8(8400m)
So, 20.01. 4:30 8(<30m) 8(8400m)
So, 20.01. 4:00 8(<30m) 8(9000m)
So, 20.01. 3:30 8(<30m)
So, 20.01. 3:00 8(<30m)
Ortszeit Luftdruck NN (hPa) Tendenz (hPa in 3 Std.)
So, 20.01. 1:00 1020 - 0,4
Sa, 19.01. 19:00 1020 - 0,2
Sa, 19.01. 13:00 1021 - 0,5
Sa, 19.01. 7:00 1020 + 0,2
Sa, 19.01. 1:00 1020 + 0,9
Fr, 18.01. 19:00 1018 + 0,5
Fr, 18.01. 13:00 1017 + 1,6
Fr, 18.01. 7:00 1011 + 4,1
Ortszeit Luftdruck NN (hPa) Tendenz (hPa in 3 Std.)
So, 20.01. 6:00 1019 - 0,3
So, 20.01. 5:50 1019 keine Meldung
So, 20.01. 5:40 1019 keine Meldung
So, 20.01. 5:30 1019 - 0,3
So, 20.01. 5:20 1019 keine Meldung
So, 20.01. 5:10 1019 keine Meldung
So, 20.01. 5:00 1019 - 0,4
So, 20.01. 4:30 1019 - 0,2
So, 20.01. 4:00 1019 - 0,3
So, 20.01. 3:30 1019 - 0,5
So, 20.01. 3:00 1019 - 0,3
Ortszeit Schneehöhe (cm)
So, 20.01. 1:00 1
Sa, 19.01. 19:00 1
Sa, 19.01. 13:00 -
Sa, 19.01. 7:00 1
Sa, 19.01. 1:00 1
Fr, 18.01. 19:00 1
Fr, 18.01. 13:00 2
Fr, 18.01. 7:00 2
Ortszeit Schneehöhe (cm)
So, 20.01. 6:00 1
So, 20.01. 5:50 1
So, 20.01. 5:40 1
So, 20.01. 5:30 1
So, 20.01. 5:20 1
So, 20.01. 5:10 1
So, 20.01. 5:00 1
So, 20.01. 4:30 1
So, 20.01. 4:00 1
So, 20.01. 3:30 1
So, 20.01. 3:00 1
Link zu dieser Seite / Seite empfehlen

Das Wetter in ...